Probability
0 0 0 0 0 0 0 0 0 0 0 0 0 0 0 0 0 0 0 0 0 0 0 0 0 0 0 0 0 0 0 0 0 0 0 0 0 0 0 0 0 0 0 0
0 0 0 0 0 0 0 0 0 0 0 0 0 0 0 0 0 0 0 0 0 0 0 0 0 0 0 0 0 0 0 0 0 0 0 0 0 0 0 0 0 0 0 0
0 0 0 0 0 0 0 0 0 0 0 0 0 0 0 0 0 0 0 0 0 0 0 0 0 0 0 0 0 0 0 0 0 0 0 0 0 0 0 0 0 0 0 0
0 0 0 0 0 0 0 0 0 0 0 0 0 0 0 0 0 0 0 0 0 0 0 0 0 0 0 0 0 0 0 0 0 0 0 0 0 0 0 0 0 0 0 0
0 0 0 0 0 0 0 0 0 0 0 0 0 0 0 0 0 0 0 0 0 0 0 0 0 0 0 0 0 0 0 0 0 0 0 0 0 0 0 0 0 0 0 0
0 0 0 0 0 0 0 0 0 0 0 0 0 0 0 0 0 0 0 0 0 0 0 0 0 0 0 0 0 0 0 0 0 0 0 0 0 0 0 0 0 0 0 0
0 0 0 0 0 0 0 0 0 0 0 0 0 0 0 0 0 0 0 0 0 0 0 0 0 0 0 0 0 0 0 0 0 0 0 0 0 0 0 0 0 0 0 0
0 0 0 0 0 0 0 0 0 0 0 0 0 0 0 0 0 0 0 0 0 0 0 0 0 0 0 0 0 0 0 0 0 0 0 0 0 0 0 0 0 0 0 0
0 0 0 0 0 0 0 0 0 0 0 0 0 0 0 0 0 0 0 0 0 0 0 0 0 0 0 0 0 0 0 0 0 0 0 0 0 0 0 0 0 0 0 0
0 0 0 0 0 0 0 0 0 0 0 0 0 0 0 0 0 0 0 0 0 0 0 0 0 0 0 0 0 0 0 0 0 0 0 0 0 0 0 0 0 0 0 0
0 0 0 0 0 0 0 0 0 0 0 0 0 0 0 0 0 0 0 0 0 0 0 0 0 0 0 0 0 0 0 0 0 0 0 0 0 0 0 0 0 0 0 0
0 0 0 0 0 0 0 0 0 0 0 0 0 0 0 0 0 0 0 0 0 0 0 0 0 0 0 0 0 0 0 0 0 0 0 0 0 0 0 0 0 0 0 0
0 0 0 0 0 0 0 0 0 0 0 0 0 0 0 0 0 0 0 0 0 0 0 0 0 0 0 0 0 0 0 0 0 0 0 0 0 0 0 0 0 0 0 0
0 0 0 0 0 0 0 0 0 0 0 0 0 0 0 0 0 0 0 0 0 0 0 0 0 0 0 0 0 0 0 0 0 0 0 0 0 0 0 0 0 0 0 0
0 0 0 0 0 0 0 0 0 0 0 0 0 0 0 0 0 0 0 0 0 0 0 0 0 0 0 0 0 0 0 0 0 0 0 0 0 0 0 0 0 0 0 0
0 0 0 0 0 0 0 0 0 0 0 0 0 0 0 0 0 0 0 0 0 0 0 0 0 0 0 0 0 0 0 0 0 0 0 0 0 0 0 0 0 0 0 0
0 0 0 0 0 0 0 0 0 0 0 0 0 0 0 0 0 0 0 0 0 0 0 0 0 0 0 0 0 0 0 0 0 0 0 0 0 0 0 0 0 0 0 0
0 0 0 0 0 0 0 0 0 0 0 0 0 0 0 0 0 0 0 0 0 0 0 0 0 0 0 0 0 0 0 0 0 0 0 0 0 0 0 0 0 0 0 0
0 0 0 0 0 0 0 0 0 0 0 0 0 0 0 0 0 0 0 0 0 0 0 0 0 0 0 0 0 0 0 0 0 0 0 0 0 0 0 0 0 0 0 0
0 0 0 0 0 0 0 0 0 0 0 0 0 0 0 0 0 0 0 0 0 0 0 0 0 0 0 0 0 0 0 0 0 0 0 0 0 0 0 0 0 0 0 0
0 0 0 0 0 0 0 0 0 0 0 0 0 0 0 0 0 0 0 0 0 0 0 0 0 0 0 0 0 0 0 0 0 0 0 0 0 0 0 0 0 0 0 0
0 0 0 0 0 0 0 0 0 0 0 0 0 0 0 0 0 0 0 0 0 0 0 0 0 0 0 0 0 0 0 0 0 0 0 0 0 0 0 0 0 0 0 0
0 0 0 0 0 0 0 0 0 0 0 0 0 0 0 0 0 0 0 0 0 0 0 0 0 0 0 0 0 0 0 0 0 0 0 0 0 0 0 0 0 0 0 0
0 0 0 0 0 0 0 0 0 0 0 0 0 0 0 0 0 0 0 0 0 0 0 0 0 0 0 0 0 0 0 0 0 0 0 0 0 0 0 0 0 0 0 0
0 0 0 0 0 0 0 0 0 0 0 0 0 0 0 0 0 0 0 0 0 0 0 0 0 0 0 0 0 0 0 0 0 0 0 0 0 0 0 0 0 0 0 0
0 0 0 0 0 0 0 0 0 0 0 0 0 0 0 0 0 0 0 0 0 0 0 0 0 0 0 0 0 0 0 0 0 0 0 0 0 0 0 0 0 0 0 0
Height
5882 5882 5879 5877 5875 5873 5871 5869 5867 5864 5860 5857 5853 5848 5843 5837 5829 5821 5812 5803 5793 5781 5768 5756 5742 5728 5715 5701 5687 5673 5659 5648 5639 5632 5623 5614 5605 5597 5589 5582 5575 5571 5568 5567
5883 5880 5878 5875 5873 5871 5869 5867 5865 5862 5858 5853 5848 5843 5838 5830 5822 5814 5804 5793 5781 5768 5755 5741 5727 5713 5699 5685 5669 5654 5642 5633 5625 5616 5607 5599 5592 5585 5578 5571 5564 5557 5552 5548
5881 5879 5877 5875 5873 5870 5867 5864 5861 5858 5854 5849 5843 5838 5833 5823 5815 5805 5793 5781 5768 5754 5741 5728 5713 5698 5683 5666 5650 5639 5630 5621 5612 5603 5594 5586 5578 5571 5564 5557 5550 5543 5536 5529
5879 5877 5875 5873 5870 5867 5864 5861 5858 5854 5850 5844 5838 5831 5825 5815 5805 5794 5782 5769 5755 5741 5727 5712 5697 5682 5664 5648 5635 5625 5617 5608 5599 5589 5580 5572 5564 5557 5550 5543 5536 5529 5521 5514
5877 5875 5873 5871 5868 5864 5861 5858 5854 5850 5845 5840 5832 5824 5817 5807 5796 5784 5771 5756 5742 5728 5713 5697 5681 5664 5647 5634 5623 5614 5605 5595 5585 5575 5565 5557 5548 5541 5534 5527 5521 5515 5508 5501
5876 5874 5871 5869 5865 5862 5859 5855 5849 5845 5839 5834 5825 5818 5808 5798 5787 5774 5759 5745 5730 5715 5699 5682 5666 5648 5634 5622 5612 5603 5593 5582 5571 5560 5549 5540 5532 5524 5517 5511 5505 5500 5494 5488
5874 5871 5868 5866 5862 5859 5855 5851 5845 5838 5832 5828 5820 5812 5803 5790 5776 5762 5748 5733 5717 5702 5685 5668 5651 5636 5623 5613 5603 5591 5580 5568 5556 5544 5533 5523 5515 5507 5500 5493 5488 5483 5479 5475
5872 5870 5866 5863 5860 5856 5852 5848 5843 5836 5829 5823 5814 5804 5794 5779 5765 5751 5737 5721 5705 5688 5671 5654 5638 5625 5614 5603 5591 5579 5566 5553 5541 5529 5518 5508 5500 5492 5485 5478 5472 5467 5463 5460
5870 5868 5864 5861 5857 5853 5848 5843 5838 5831 5822 5814 5806 5797 5783 5769 5756 5742 5727 5711 5694 5677 5660 5643 5629 5616 5604 5591 5577 5564 5552 5539 5527 5517 5508 5498 5489 5481 5473 5465 5458 5452 5447 5444
5868 5866 5862 5859 5855 5850 5845 5839 5834 5826 5818 5808 5799 5788 5775 5761 5747 5732 5717 5701 5683 5665 5649 5634 5620 5608 5593 5578 5564 5551 5539 5529 5519 5509 5499 5490 5480 5471 5462 5454 5446 5439 5433 5429
5865 5863 5860 5856 5851 5846 5841 5835 5828 5822 5813 5802 5791 5783 5768 5753 5737 5723 5707 5690 5672 5656 5641 5626 5612 5598 5582 5568 5555 5543 5532 5522 5512 5502 5491 5481 5472 5462 5452 5443 5434 5426 5419 5414
5862 5861 5857 5853 5848 5843 5837 5831 5824 5817 5806 5796 5785 5776 5759 5744 5728 5713 5697 5680 5662 5647 5633 5619 5604 5588 5573 5561 5549 5538 5527 5516 5505 5494 5483 5472 5462 5451 5441 5431 5421 5413 5405 5399
5860 5857 5854 5850 5847 5840 5832 5825 5817 5809 5800 5790 5778 5768 5751 5735 5719 5704 5688 5671 5655 5640 5626 5611 5595 5580 5567 5555 5544 5533 5522 5510 5499 5487 5475 5463 5452 5441 5429 5418 5408 5399 5392 5385
5857 5854 5850 5845 5839 5833 5827 5821 5813 5804 5794 5783 5771 5759 5742 5727 5712 5697 5681 5663 5648 5633 5618 5603 5588 5574 5562 5551 5539 5528 5516 5504 5492 5479 5467 5455 5442 5430 5418 5406 5395 5386 5378 5372
5854 5851 5846 5842 5837 5831 5823 5816 5808 5799 5788 5777 5764 5751 5736 5720 5705 5689 5672 5656 5641 5626 5612 5597 5581 5569 5558 5546 5534 5522 5510 5497 5484 5472 5459 5446 5434 5421 5409 5397 5385 5375 5367 5360
5849 5846 5842 5839 5833 5827 5819 5811 5802 5793 5781 5770 5757 5744 5729 5713 5697 5681 5665 5650 5635 5620 5606 5590 5576 5565 5553 5541 5529 5517 5504 5491 5477 5464 5452 5439 5427 5414 5401 5389 5377 5367 5358 5350
5845 5840 5837 5832 5826 5821 5813 5805 5796 5787 5775 5763 5750 5737 5721 5706 5691 5675 5659 5644 5628 5614 5599 5585 5572 5560 5548 5536 5524 5511 5498 5484 5471 5457 5445 5432 5420 5407 5394 5381 5369 5359 5349 5341
5841 5836 5831 5826 5821 5814 5810 5800 5790 5780 5769 5756 5742 5728 5714 5700 5684 5668 5652 5637 5623 5608 5593 5581 5569 5556 5544 5531 5518 5505 5492 5478 5464 5451 5438 5426 5414 5400 5387 5374 5361 5350 5340 5331
5837 5832 5826 5821 5815 5810 5803 5793 5782 5773 5763 5749 5736 5722 5708 5694 5680 5664 5647 5632 5618 5603 5588 5576 5565 5552 5540 5527 5514 5501 5487 5472 5459 5445 5433 5421 5408 5395 5380 5366 5353 5340 5329 5320
5833 5828 5823 5817 5810 5803 5798 5788 5777 5767 5756 5743 5731 5717 5703 5689 5674 5659 5642 5627 5612 5597 5584 5573 5561 5549 5536 5523 5510 5497 5483 5468 5454 5441 5428 5416 5402 5388 5373 5358 5343 5329 5316 5307
5829 5824 5819 5812 5805 5799 5791 5781 5771 5762 5752 5738 5724 5711 5697 5683 5668 5652 5636 5622 5607 5593 5581 5569 5557 5545 5533 5521 5507 5494 5479 5465 5451 5437 5424 5411 5397 5383 5367 5351 5333 5317 5303 5294
5823 5817 5812 5806 5799 5794 5784 5776 5768 5758 5745 5732 5718 5705 5692 5677 5662 5647 5632 5618 5603 5590 5579 5567 5555 5543 5531 5519 5506 5492 5477 5463 5449 5435 5422 5408 5393 5378 5362 5345 5326 5307 5292 5283
5819 5814 5808 5803 5798 5789 5780 5772 5763 5752 5740 5727 5713 5700 5687 5673 5658 5643 5629 5615 5601 5589 5577 5566 5553 5541 5529 5517 5504 5491 5477 5463 5448 5435 5421 5406 5390 5374 5358 5340 5321 5302 5286 5276
5814 5809 5804 5798 5791 5784 5775 5767 5757 5746 5734 5721 5708 5695 5683 5669 5654 5640 5626 5612 5598 5586 5576 5565 5553 5541 5528 5516 5503 5490 5477 5462 5448 5435 5421 5406 5390 5373 5356 5338 5319 5300 5284 5273
5807 5802 5798 5793 5786 5779 5771 5762 5752 5741 5729 5716 5703 5691 5679 5665 5650 5636 5623 5609 5596 5585 5575 5564 5552 5540 5528 5516 5504 5490 5477 5464 5450 5436 5422 5407 5391 5375 5358 5339 5320 5301 5284 5271
5802 5798 5792 5787 5781 5773 5766 5757 5746 5736 5724 5712 5699 5687 5675 5661 5647 5634 5621 5607 5595 5585 5575 5563 5552 5540 5528 5517 5504 5491 5478 5465 5452 5439 5425 5411 5396 5380 5363 5345 5327 5307 5289 5275
Wind_Speed
5 7 8 9 10 12 14 15 16 18 21 25 29 33 37 40 45 50 55 61 66 72 75 78 81 82 83 85 86 83 76 70 66 66 65 59 50 44 43 46 49 51 56 66
7 9 11 12 14 14 15 16 17 20 24 29 34 36 39 43 49 53 59 64 70 75 78 79 81 83 85 85 83 74 64 60 61 61 56 49 43 42 42 42 43 45 47 51
7 9 11 13 14 15 17 19 22 25 29 33 39 41 43 47 52 57 63 68 73 77 79 80 82 84 84 81 72 61 55 55 57 57 53 49 46 47 48 46 44 45 46 47
9 11 13 15 16 18 20 23 26 29 32 35 40 45 45 49 55 62 67 71 75 77 79 81 83 81 78 72 63 55 53 54 57 56 53 52 51 52 53 50 46 45 45 46
10 12 14 16 17 20 22 25 28 31 34 37 41 46 50 55 60 65 70 73 76 78 81 82 79 75 71 64 56 53 54 57 58 59 57 55 55 55 56 54 50 46 44 44
12 13 15 17 19 21 24 28 31 33 36 39 44 49 55 59 65 70 73 76 78 80 81 78 74 69 64 58 54 55 58 61 62 62 60 57 55 56 56 55 52 48 44 41
16 16 17 18 19 22 25 29 33 38 41 43 47 51 58 64 69 72 75 77 79 81 78 73 68 63 58 56 56 59 62 64 63 62 60 57 54 53 53 53 51 49 45 40
18 17 17 18 19 21 23 27 32 37 42 45 49 54 60 66 71 75 76 78 81 80 74 69 64 60 58 59 61 63 64 64 61 58 55 52 50 48 48 49 49 48 46 41
17 17 17 18 20 23 26 31 35 38 44 50 53 58 64 69 74 75 76 78 81 77 71 65 62 61 63 65 65 64 61 58 55 52 49 48 47 46 45 45 46 46 45 42
17 17 18 19 21 24 29 33 37 40 46 53 58 63 67 72 74 75 76 79 79 74 67 64 63 65 66 67 64 60 55 52 50 49 49 48 48 47 46 46 46 46 45 42
17 18 20 22 23 27 31 35 38 43 48 54 61 66 70 74 75 75 78 79 75 69 65 65 66 68 67 63 58 53 50 49 48 48 48 48 48 48 48 48 48 47 46 44
17 19 22 23 25 28 32 36 41 46 51 55 63 69 74 75 74 76 77 76 71 66 65 66 68 67 62 57 53 50 49 49 50 50 50 50 50 51 52 52 50 48 45 43
19 22 25 25 27 30 34 39 44 48 52 58 65 70 74 74 74 76 76 73 69 66 66 68 67 63 57 53 51 50 50 51 52 54 54 53 53 53 53 52 49 46 43 40
21 24 26 29 31 33 37 41 45 49 55 61 66 71 74 74 75 76 76 73 69 67 68 68 64 58 54 52 52 52 52 53 55 56 55 54 53 52 52 51 47 43 40 37
23 25 26 28 29 32 37 41 46 51 56 62 68 73 74 74 75 77 75 72 69 68 68 65 59 55 52 52 53 53 54 55 56 56 54 53 53 53 52 51 48 43 38 34
26 26 27 28 30 32 37 42 48 53 58 64 70 74 75 73 75 76 73 71 68 68 67 61 55 53 52 53 54 54 56 57 56 55 53 52 53 54 54 52 49 44 39 34
27 29 30 32 34 36 40 46 50 54 60 66 71 74 73 72 74 74 72 69 68 68 64 57 53 52 52 54 55 56 58 58 57 55 52 52 54 57 57 55 52 47 41 35
28 30 33 35 37 39 43 47 51 56 62 67 72 74 72 72 73 72 69 68 67 66 60 53 52 52 54 55 56 57 60 60 58 55 52 54 57 59 59 58 56 52 44 36
28 31 34 37 39 40 43 49 54 58 62 68 72 72 71 72 73 70 68 67 67 63 56 53 53 54 55 55 56 59 61 61 59 54 53 55 57 59 59 60 60 56 46 37
28 31 34 37 40 43 45 50 55 60 65 69 72 71 70 71 72 69 68 67 66 60 54 53 54 55 55 55 57 59 61 61 58 54 54 56 58 59 60 62 63 59 47 35
30 33 35 38 40 42 46 51 56 61 66 69 71 69 68 70 70 68 67 66 64 57 53 53 55 55 55 55 57 59 61 61 58 55 56 57 59 60 62 64 65 59 45 31
33 36 38 40 43 45 48 51 55 60 65 69 69 67 67 69 69 66 65 65 61 54 52 54 55 55 55 55 56 59 60 60 58 56 57 59 61 62 63 66 66 59 44 29
33 36 39 40 42 44 47 51 55 60 64 68 68 66 67 68 67 65 64 63 58 52 52 54 54 55 55 55 56 58 59 58 57 56 57 60 62 63 65 68 68 61 45 29
34 37 39 40 41 44 47 51 55 58 62 67 66 65 66 67 66 63 63 61 55 51 51 53 54 54 53 54 57 58 58 57 56 55 57 60 62 63 66 69 70 65 49 33
38 39 39 39 41 43 47 52 55 57 62 65 65 64 65 66 64 62 61 59 53 49 50 52 53 53 52 54 56 57 56 56 55 56 58 60 62 63 64 68 71 69 56 40
39 38 39 39 41 44 47 52 55 57 62 65 64 63 64 64 62 61 59 56 50 47 48 50 52 52 51 53 55 56 56 56 56 56 57 60 61 62 63 66 69 71 64 48
Wind_Direction
313 324 334 338 337 338 339 339 339 335 332 329 327 325 324 321 318 317 316 316 316 316 316 317 317 316 316 315 313 310 305 304 306 308 307 304 301 300 298 296 293 286 277 267
314 321 328 327 328 329 327 324 325 328 330 329 326 325 324 319 317 318 317 317 318 317 318 318 318 317 316 314 310 307 306 309 311 312 309 303 301 302 302 299 295 292 289 283
327 330 332 329 323 320 320 321 324 327 328 326 323 322 322 319 321 321 320 319 318 318 320 320 319 318 316 313 309 308 309 312 314 313 307 299 298 302 304 303 299 297 296 294
336 334 331 328 326 326 326 324 324 324 326 326 323 321 324 324 324 323 322 321 321 322 322 321 320 320 316 313 312 312 314 315 315 314 308 299 293 294 298 301 299 297 297 297
332 330 329 330 330 328 325 323 323 324 326 325 325 326 327 326 326 325 325 325 325 324 323 323 323 321 318 316 315 315 316 316 316 314 309 303 296 292 293 296 297 297 297 297
338 333 332 331 328 327 326 324 325 326 327 330 330 330 328 329 329 329 328 328 327 325 325 326 325 322 321 321 319 318 317 316 315 314 311 306 300 296 293 293 294 294 295 295
351 345 340 335 331 329 329 328 327 328 330 333 331 331 331 332 332 332 331 329 328 328 329 328 326 325 324 324 321 319 317 316 315 313 310 308 304 300 297 294 292 291 290 289
349 347 343 340 334 331 329 327 329 331 330 331 333 335 334 335 335 334 332 331 331 332 331 330 328 326 326 324 322 321 319 318 316 315 314 314 312 308 305 301 297 292 288 285
346 344 343 338 332 330 329 330 332 332 332 334 335 335 335 337 336 335 334 333 334 334 333 331 328 328 327 326 325 324 323 322 323 324 324 322 320 318 314 311 307 301 293 285
342 341 339 337 333 330 331 333 335 336 336 335 335 338 339 338 337 336 336 336 337 335 333 331 329 330 329 328 327 328 330 331 331 329 327 325 323 320 318 316 312 307 301 291
340 339 338 337 334 334 336 336 337 336 337 338 337 339 340 339 338 337 338 339 338 336 333 331 331 332 331 330 332 335 335 335 333 332 329 327 324 321 318 316 315 310 303 296
339 338 336 336 336 335 335 336 336 337 338 338 338 339 341 340 339 339 340 340 338 336 334 333 334 333 333 335 337 338 337 336 335 334 332 329 326 323 320 317 314 310 304 297
339 338 335 334 335 337 336 335 335 335 337 338 340 340 341 341 341 341 342 341 339 338 335 335 336 335 337 340 340 339 338 337 336 335 333 331 330 328 325 322 317 312 306 298
337 336 336 335 338 337 334 333 333 335 338 339 341 341 342 342 342 342 342 341 341 338 337 337 337 339 342 342 341 340 339 337 336 336 335 335 335 335 334 332 326 318 311 302
334 335 335 333 334 333 330 331 334 337 339 341 342 342 343 343 343 343 343 342 341 339 339 339 340 344 345 344 343 342 340 339 338 338 339 339 340 340 339 338 336 329 319 310
332 334 335 333 332 333 330 333 336 339 340 341 342 343 343 344 343 344 343 343 342 340 341 342 345 347 346 345 344 343 342 341 341 342 342 342 343 345 344 342 339 335 327 318
331 332 334 335 336 337 337 338 337 339 340 342 343 342 344 344 344 344 344 343 342 342 343 345 348 348 346 345 345 346 345 345 344 344 344 344 345 347 347 346 343 338 331 322
329 330 332 336 338 340 338 336 338 341 341 341 342 343 344 345 344 345 345 344 343 343 345 348 350 348 347 347 347 348 347 347 346 345 345 345 345 346 346 345 344 340 332 323
326 329 331 335 337 337 337 339 340 340 341 341 342 343 344 345 344 346 346 344 344 345 348 350 350 349 348 348 348 348 348 348 348 347 346 347 347 347 347 346 344 340 333 323
325 326 329 333 335 337 338 338 339 340 340 341 342 344 344 345 345 347 347 346 346 348 350 351 351 350 350 350 349 349 350 350 350 350 350 350 349 348 347 346 344 341 334 322
325 326 330 333 335 336 337 338 338 340 339 341 343 344 344 345 347 348 348 347 348 351 352 351 351 351 352 352 352 352 352 353 354 354 353 352 351 351 349 348 347 345 338 325
325 328 332 336 336 336 336 335 336 337 339 341 342 344 345 346 348 349 349 349 350 353 353 352 352 352 353 353 354 354 354 355 356 356 355 354 354 354 354 353 353 351 345 332
322 324 330 334 334 334 334 335 335 337 339 340 342 344 345 347 349 350 350 351 352 355 355 354 354 354 354 355 356 356 357 358 359 359 358 358 358 358 359 359 359 358 354 345
317 322 329 332 332 333 334 335 336 337 338 340 342 344 346 348 350 351 351 352 354 357 357 356 356 356 356 356 358 358 360 1 1 2 1 1 2 2 2 3 4 4 3 357
313 321 327 330 330 331 333 335 335 336 338 340 343 345 347 348 350 351 352 354 356 357 358 358 359 358 358 358 360 1 3 4 4 4 4 5 5 5 6 7 9 10 9 5
309 316 322 326 327 329 331 333 334 335 337 341 343 345 347 349 350 352 353 356 357 358 358 0 1 0 360 1 2 4 6 7 7 7 8 9 9 10 11 12 13 14 15 13